CW5398 Weather Reports


Display with metric or nautical units.
time (UTC)temp
F
wind
direction
speed
MPH
gust
MPH
rain 1hr
in
rain 24hr
in
rain mn
in
humidity
%
barometer
mb
20260902093517 53 254 0.0 0.0 0.00 0.00 0.00 94 1005.9
20260902092517 53 254 0.0 0.0 0.00 0.00 0.00 93 1006.3
20260902091517 53 254 0.0 0.0 0.00 0.00 0.00 93 1006.3
20260902090517 53 254 0.0 0.0 0.00 0.00 0.00 92 1006.5
20260902085537 53 254 0.0 0.0 0.00 0.00 0.00 92 1006.6
20260902084517 53 254 0.0 0.0 0.00 0.00 0.00 92 1006.6
20260902083516 53 254 0.0 0.0 0.00 0.00 0.00 92 1006.8
20260902082516 54 254 0.0 0.0 0.00 0.00 0.00 91 1007.0
20260902081536 54 254 0.0 0.0 0.00 0.00 0.00 91 1007.0
20260902080516 54 254 0.0 0.0 0.00 0.00 0.00 91 1007.1
20260902075516 55 254 0.0 0.0 0.00 0.00 0.00 90 1007.2
20260902074556 55 254 0.0 0.0 0.00 0.00 0.00 90 1007.2
20260902073516 55 254 0.0 0.0 0.00 0.00 0.00 89 1007.1
20260902072516 56 254 0.0 0.0 0.00 0.00 0.00 89 1007.3
20260902071516 56 254 0.0 0.0 0.00 0.00 0.00 89 1007.3
20260902070516 57 254 0.0 0.0 0.00 0.00 0.00 88 1007.4
20260902065536 57 254 0.0 0.0 0.00 0.00 0.00 88 1007.5
20260902064516 58 254 0.0 0.0 0.00 0.00 0.00 88 1007.5
20260902063516 58 254 0.0 0.0 0.00 0.00 0.00 88 1007.5
20260902062516 58 254 0.0 0.0 0.00 0.00 0.00 88 1007.6
20260902061516 58 254 0.0 0.0 0.00 0.00 0.00 88 1007.6
20260902060516 58 254 0.0 0.0 0.00 0.00 0.00 87 1007.6
20260902055516 58 254 0.0 0.0 0.00 0.00 0.00 87 1007.9
20260902054516 59 254 0.0 0.0 0.00 0.00 0.00 87 1007.9
20260902053516 59 254 0.0 0.0 0.00 0.00 0.00 87 1008.0
20260902052516 59 254 0.0 0.0 0.00 0.00 0.00 87 1008.1
20260902051516 59 254 0.0 0.0 0.00 0.00 0.00 87 1008.1
20260902050536 60 254 0.0 0.0 0.00 0.00 0.00 87 1008.1
20260902045516 60 254 0.0 0.0 0.00 0.00 0.00 87 1008.1
20260902044517 60 254 0.0 0.0 0.00 0.00 0.00 85 1008.1
20260902043556 60 254 0.0 0.0 0.00 0.00 0.00 85 1008.2
20260902042515 60 254 0.0 0.0 0.00 0.00 0.00 85 1008.2
20260902041535 60 254 0.0 0.0 0.00 0.00 0.00 85 1008.2
20260902040516 60 254 0.0 0.0 0.00 0.00 0.00 85 1008.2
20260902035536 60 254 0.0 0.0 0.00 0.00 0.00 85 1008.1
20260902034535 60 254 0.0 0.0 0.00 0.00 0.00 84 1008.1
20260902033516 61 254 0.0 0.0 0.00 0.00 0.00 84 1008.1
20260902032536 61 254 0.0 0.0 0.00 0.00 0.00 84 1008.1
20260902031535 61 254 0.0 0.0 0.00 0.00 0.00 83 1008.1
20260902030535 61 254 0.0 0.0 0.00 0.00 0.00 83 1008.2
20260902025516 61 254 0.0 0.0 0.00 0.00 0.00 82 1008.2
20260902024556 61 254 0.0 0.0 0.00 0.00 0.00 82 1008.2
20260902023515 61 254 0.0 0.0 0.00 0.00 0.00 82 1008.2
20260902022515 61 254 0.0 0.0 0.00 0.00 0.00 82 1008.3
20260902021515 61 254 0.0 0.0 0.00 0.00 0.00 82 1008.3
20260902020516 62 254 0.0 0.0 0.00 0.00 0.00 82 1008.3
20260902015515 62 254 0.0 0.0 0.00 0.00 0.00 80 1008.5
20260902014521 62 254 0.0 0.0 0.00 0.00 0.00 80 1008.5
20260902013515 62 254 0.0 0.0 0.00 0.00 0.00 80 1008.5
20260902012515 62 254 0.0 0.0 0.00 0.00 0.00 80 1008.5
20260902011515 62 254 0.0 0.0 0.00 0.00 0.00 80 1008.5
20260902010517 62 254 0.0 0.0 0.00 0.00 0.00 79 1008.4
20260902005517 62 254 0.0 0.0 0.00 0.00 0.00 80 1008.5
20260902004537 62 254 0.0 0.0 0.00 0.00 0.00 79 1008.5
20260902003518 62 254 0.0 0.0 0.00 0.00 0.00 78 1008.4
20260902002517 62 254 0.0 0.0 0.00 0.00 0.00 79 1008.5
20260902001537 63 254 0.0 0.0 0.00 0.00 0.00 77 1008.5
20260902000517 63 254 0.0 0.0 0.00 0.00 0.00 77 1008.5
20260901235517 62 254 0.0 0.0 0.00 0.00 0.00 77 1008.6
20260901234517 62 254 0.0 0.0 0.00 0.00 0.00 78 1008.6
20260901233517 62 254 0.0 0.0 0.00 0.00 0.00 77 1008.6
20260901232517 62 248 0.0 2.0 0.00 0.00 0.00 77 1008.5
20260901231517 62 254 0.0 0.0 0.00 0.00 0.00 78 1008.5
20260901230517 62 254 0.0 0.0 0.00 0.00 0.00 80 1008.6
20260901225517 61 248 0.0 1.0 0.00 0.00 0.00 81 1008.5
20260901224517 61 254 0.0 0.0 0.00 0.00 0.00 82 1008.5
20260901223537 61 248 1.0 4.0 0.00 0.00 0.00 83 1008.6
20260901222517 61 248 0.0 1.0 0.00 0.00 0.00 82 1008.8
20260901221537 60 248 0.0 1.0 0.00 0.00 0.00 82 1008.8
20260901220517 60 254 0.0 0.0 0.00 0.00 0.00 83 1008.8
20260901215516 60 248 1.0 4.0 0.00 0.00 0.00 82 1009.0
20260901214517 60 248 1.0 3.0 0.00 0.00 0.00 82 1009.0
20260901213517 60 248 0.0 1.0 0.00 0.00 0.00 81 1009.0
20260901212517 61 248 1.0 4.0 0.00 0.00 0.00 81 1009.1
20260901211516 61 248 0.0 1.0 0.00 0.00 0.00 80 1009.1
20260901210517 61 248 0.0 2.0 0.00 0.00 0.00 79 1009.2
20260901205517 62 248 1.0 4.0 0.00 0.00 0.00 77 1009.1
20260901204516 63 248 1.0 5.0 0.00 0.00 0.00 76 1009.1
20260901203516 64 248 1.0 4.0 0.00 0.00 0.00 74 1009.1
20260901202556 65 270 1.0 7.0 0.00 0.00 0.00 72 1009.1
20260901201516 66 270 1.0 6.0 0.00 0.00 0.00 71 1009.1
20260901200516 66 270 2.0 7.0 0.00 0.00 0.00 69 1009.0
20260901195517 66 270 1.0 6.0 0.00 0.00 0.00 68 1009.0
20260901194517 66 270 2.0 5.0 0.00 0.00 0.00 70 1009.0
20260901193516 66 293 2.0 6.0 0.00 0.00 0.00 69 1009.1
20260901192536 66 293 1.0 4.0 0.00 0.00 0.00 69 1009.1
20260901191516 66 293 0.0 1.0 0.00 0.00 0.00 72 1009.1
20260901190516 65 293 0.0 3.0 0.00 0.00 0.00 72 1009.1
20260901185516 64 293 1.0 5.0 0.00 0.00 0.00 74 1009.1
20260901184516 64 293 1.0 5.0 0.00 0.00 0.00 75 1009.1
20260901183516 63 293 2.0 6.0 0.00 0.00 0.00 75 1009.1
20260901182516 63 293 1.0 5.0 0.00 0.00 0.00 76 1009.1
20260901181516 62 293 2.0 4.0 0.00 0.00 0.00 78 1009.1
20260901180637 62 293 1.0 3.0 0.00 0.00 0.00 79 1009.1
20260901175516 61 293 0.0 1.0 0.00 0.00 0.00 80 1009.1
20260901174516 61 293 2.0 5.0 0.00 0.00 0.00 81 1009.1
20260901173516 60 293 0.0 1.0 0.00 0.00 0.00 82 1009.1
20260901172516 60 293 0.0 1.0 0.00 0.00 0.00 85 1009.1
20260901171516 58 286 0.0 0.0 0.00 0.00 0.00 88 1009.1
20260901170536 58 286 0.0 0.0 0.00 0.00 0.00 90 1009.1
20260901165516 57 293 0.0 1.0 0.00 0.00 0.00 91 1009.1
20260901164536 56 286 0.0 0.0 0.00 0.00 0.00 92 1009.1
20260901163536 56 293 1.0 3.0 0.00 0.00 0.00 94 1009.0
20260901162536 56 286 0.0 0.0 0.00 0.00 0.00 96 1009.0
20260901161536 56 293 0.0 2.0 0.00 0.00 0.00 97 1009.0
20260901160516 55 286 0.0 0.0 0.00 0.00 0.00 97 1009.0
20260901155516 55 293 0.0 1.0 0.00 0.00 0.00 98 1009.0
20260901154536 55 293 1.0 4.0 0.00 0.00 0.00 98 1009.0
20260901153516 54 286 0.0 0.0 0.00 0.00 0.00 98 1008.8
20260901152516 54 286 0.0 0.0 0.00 0.00 0.00 98 1008.7
20260901151516 53 286 0.0 0.0 0.00 0.00 0.00 98 1008.7
20260901150516 53 286 0.0 0.0 0.00 0.00 0.00 98 1008.6
20260901145516 52 286 0.0 0.0 0.00 0.00 0.00 97 1008.6
20260901144516 52 286 0.0 0.0 0.00 0.00 0.00 97 1008.6
20260901143516 51 286 0.0 0.0 0.00 0.00 0.00 97 1008.6
20260901142536 51 286 0.0 0.0 0.00 0.00 0.00 97 1008.6
20260901141515 51 286 0.0 0.0 0.00 0.00 0.00 97 1008.6
20260901140515 51 286 0.0 0.0 0.00 0.00 0.00 97 1008.5
20260901135515 51 286 0.0 0.0 0.00 0.00 0.00 97 1008.4
20260901134515 51 286 0.0 0.0 0.00 0.00 0.00 97 1008.4
20260901133515 51 286 0.0 0.0 0.00 0.00 0.00 97 1008.3
20260901132515 50 286 0.0 0.0 0.00 0.00 0.00 96 1008.2
20260901131516 50 286 0.0 0.0 0.00 0.00 0.00 96 1008.2
20260901130516 50 286 0.0 0.0 0.00 0.00 0.00 96 1008.2
20260901125516 50 286 0.0 0.0 0.00 0.00 0.00 96 1008.3
20260901124535 50 286 0.0 0.0 0.00 0.00 0.00 96 1008.3
20260901123516 50 286 0.0 0.0 0.00 0.00 0.00 96 1008.2
20260901122516 50 286 0.0 0.0 0.00 0.00 0.00 96 1008.2
20260901121535 50 286 0.0 0.0 0.00 0.00 0.00 95 1008.2
20260901120515 50 286 0.0 0.0 0.00 0.00 0.00 95 1008.1
20260901115515 50 286 0.0 0.0 0.00 0.00 0.00 95 1008.2
20260901114516 50 286 0.0 0.0 0.00 0.00 0.00 96 1008.2
20260901113516 50 286 0.0 0.0 0.00 0.00 0.00 95 1008.2
20260901112515 51 286 0.0 0.0 0.00 0.00 0.00 95 1008.1
20260901111515 51 286 0.0 0.0 0.00 0.00 0.00 95 1008.1
20260901110515 50 286 0.0 0.0 0.00 0.00 0.00 95 1008.4
20260901105515 51 286 0.0 0.0 0.00 0.00 0.00 95 1008.5
20260901104515 51 286 0.0 0.0 0.00 0.00 0.00 95 1008.5
20260901103516 51 286 0.0 0.0 0.00 0.00 0.00 95 1008.3
20260901102517 51 286 0.0 0.0 0.00 0.00 0.00 94 1008.5
20260901101517 51 286 0.0 0.0 0.00 0.00 0.00 94 1008.5
20260901100517 51 286 0.0 0.0 0.00 0.00 0.00 94 1008.6
20260901095517 51 286 0.0 0.0 0.00 0.00 0.00 93 1008.5
20260901094515 51 286 0.0 0.0 0.00 0.00 0.00 93 1008.5